TimeCST,TemperatureF,Dew PointF,Humidity,Sea Level PressureIn,VisibilityMPH,Wind Direction,Wind SpeedMPH,Gust SpeedMPH,PrecipitationIn,Events,Conditions,WindDirDegrees,DateUTC
12:15 AM,32.0,23.0,69,30.20,10.0,NNW,5.8,-,N/A,,Clear,330,2012-02-05 06:15:00
12:55 AM,30.2,23.0,75,30.21,10.0,North,4.6,-,N/A,,Clear,350,2012-02-05 06:55:00
1:15 AM,30.2,23.0,75,30.22,10.0,North,5.8,-,N/A,,Clear,350,2012-02-05 07:15:00
1:35 AM,30.2,23.0,75,30.22,10.0,North,5.8,-,N/A,,Clear,350,2012-02-05 07:35:00
1:55 AM,30.2,24.8,80,30.22,10.0,NNW,4.6,-,N/A,,Clear,340,2012-02-05 07:55:00
2:15 AM,28.4,24.8,86,30.23,10.0,NNW,5.8,-,N/A,,Clear,340,2012-02-05 08:15:00
2:35 AM,28.4,24.8,86,30.23,10.0,North,5.8,-,N/A,,Clear,350,2012-02-05 08:35:00
2:55 AM,28.4,26.6,93,30.24,10.0,North,4.6,-,N/A,,Clear,350,2012-02-05 08:55:00
3:15 AM,28.4,26.6,93,30.24,10.0,NNW,4.6,-,N/A,,Clear,340,2012-02-05 09:15:00
3:55 AM,28.4,26.6,93,30.25,10.0,North,6.9,-,N/A,,Clear,360,2012-02-05 09:55:00
4:15 AM,28.4,28.4,100,30.25,10.0,North,5.8,-,N/A,,Clear,360,2012-02-05 10:15:00
4:35 AM,28.4,28.4,100,30.25,10.0,North,6.9,-,N/A,,Scattered Clouds,360,2012-02-05 10:35:00
4:55 AM,28.4,28.4,100,30.25,10.0,North,4.6,-,N/A,,Mostly Cloudy,10,2012-02-05 10:55:00
5:15 AM,28.4,28.4,100,30.25,10.0,North,4.6,-,N/A,,Overcast,360,2012-02-05 11:15:00
5:55 AM,30.2,28.4,93,30.26,10.0,North,3.5,-,N/A,,Overcast,360,2012-02-05 11:55:00
6:15 AM,30.2,28.4,93,30.27,10.0,North,4.6,-,N/A,,Overcast,360,2012-02-05 12:15:00
6:35 AM,30.2,28.4,93,30.28,10.0,North,4.6,-,N/A,,Overcast,10,2012-02-05 12:35:00
6:55 AM,30.2,28.4,93,30.28,10.0,North,5.8,-,N/A,,Overcast,360,2012-02-05 12:55:00
7:15 AM,30.2,26.6,86,30.29,10.0,North,5.8,-,N/A,,Overcast,360,2012-02-05 13:15:00
7:55 AM,30.2,26.6,86,30.30,10.0,North,5.8,-,N/A,,Overcast,10,2012-02-05 13:55:00
8:15 AM,30.2,26.6,86,30.31,10.0,North,3.5,-,N/A,,Overcast,360,2012-02-05 14:15:00
8:35 AM,30.2,26.6,86,30.32,10.0,North,5.8,-,N/A,,Overcast,360,2012-02-05 14:35:00
8:55 AM,30.2,26.6,86,30.32,10.0,North,4.6,-,N/A,,Overcast,360,2012-02-05 14:55:00
9:15 AM,30.2,24.8,80,30.32,10.0,North,5.8,-,N/A,,Overcast,10,2012-02-05 15:15:00
9:35 AM,30.2,24.8,80,30.32,10.0,Calm,Calm,-,N/A,,Overcast,0,2012-02-05 15:35:00
9:55 AM,32.0,24.8,75,30.32,10.0,NE,4.6,-,N/A,,Overcast,50,2012-02-05 15:55:00
10:15 AM,32.0,24.8,75,30.33,10.0,Calm,Calm,-,N/A,,Overcast,0,2012-02-05 16:15:00
10:55 AM,32.0,24.8,75,30.33,10.0,NNW,3.5,-,N/A,,Overcast,330,2012-02-05 16:55:00
11:15 AM,32.0,24.8,75,30.32,10.0,Calm,Calm,-,N/A,,Overcast,0,2012-02-05 17:15:00
11:55 AM,32.0,24.8,75,30.31,10.0,Calm,Calm,-,N/A,,Overcast,0,2012-02-05 17:55:00
12:15 PM,32.0,26.6,80,30.30,10.0,WSW,4.6,-,N/A,,Overcast,250,2012-02-05 18:15:00
12:35 PM,32.0,24.8,75,30.30,10.0,WSW,3.5,-,N/A,,Overcast,250,2012-02-05 18:35:00
12:55 PM,32.0,24.8,75,30.29,10.0,West,3.5,-,N/A,,Overcast,270,2012-02-05 18:55:00
1:15 PM,32.0,24.8,75,30.29,10.0,WSW,4.6,-,N/A,,Overcast,250,2012-02-05 19:15:00
1:35 PM,32.0,24.8,75,30.29,10.0,West,3.5,-,N/A,,Overcast,270,2012-02-05 19:35:00
1:55 PM,32.0,26.6,80,30.28,10.0,Calm,Calm,-,N/A,,Mostly Cloudy,0,2012-02-05 19:55:00
2:15 PM,33.8,26.6,75,30.28,10.0,West,4.6,-,N/A,,Clear,270,2012-02-05 20:15:00
2:35 PM,33.8,26.6,75,30.27,10.0,WSW,4.6,-,N/A,,Clear,250,2012-02-05 20:35:00
2:55 PM,33.8,26.6,75,30.27,10.0,South,5.8,-,N/A,,Clear,190,2012-02-05 20:55:00
3:15 PM,33.8,26.6,75,30.27,10.0,SW,5.8,-,N/A,,Clear,220,2012-02-05 21:15:00
3:35 PM,33.8,26.6,75,30.27,10.0,SW,6.9,-,N/A,,Clear,230,2012-02-05 21:35:00
3:55 PM,33.8,26.6,75,30.27,10.0,SSW,6.9,-,N/A,,Clear,210,2012-02-05 21:55:00
4:15 PM,33.8,28.4,81,30.27,10.0,SSW,6.9,-,N/A,,Clear,210,2012-02-05 22:15:00
4:35 PM,33.8,28.4,81,30.27,10.0,SSW,6.9,-,N/A,,Clear,210,2012-02-05 22:35:00
4:55 PM,32.0,28.4,87,30.26,10.0,SSW,5.8,-,N/A,,Clear,200,2012-02-05 22:55:00
5:15 PM,32.0,28.4,87,30.26,10.0,SSW,5.8,-,N/A,,Clear,210,2012-02-05 23:15:00
5:35 PM,32.0,28.4,87,30.26,10.0,SW,5.8,-,N/A,,Clear,220,2012-02-05 23:35:00
5:55 PM,32.0,28.4,87,30.26,10.0,SW,6.9,-,N/A,,Clear,220,2012-02-05 23:55:00
6:15 PM,32.0,28.4,87,30.25,10.0,SW,6.9,-,N/A,,Clear,220,2012-02-06 00:15:00
6:35 PM,30.2,26.6,86,30.25,10.0,WSW,6.9,-,N/A,,Clear,240,2012-02-06 00:35:00
6:55 PM,30.2,26.6,86,30.25,10.0,WSW,6.9,-,N/A,,Clear,240,2012-02-06 00:55:00
7:15 PM,30.2,26.6,86,30.25,7.0,WSW,5.8,-,N/A,,Clear,240,2012-02-06 01:15:00
7:35 PM,30.2,28.4,93,30.24,7.0,WSW,6.9,-,N/A,,Clear,240,2012-02-06 01:35:00
7:55 PM,30.2,26.6,86,30.24,7.0,WSW,5.8,-,N/A,,Clear,250,2012-02-06 01:55:00
8:15 PM,28.4,26.6,93,30.23,7.0,WSW,6.9,-,N/A,,Clear,240,2012-02-06 02:15:00
8:35 PM,28.4,26.6,93,30.22,5.0,WSW,5.8,-,N/A,,Clear,250,2012-02-06 02:35:00
8:55 PM,28.4,28.4,100,30.22,5.0,WSW,6.9,-,N/A,,Clear,250,2012-02-06 02:55:00
9:15 PM,28.4,26.6,93,30.22,4.0,WSW,8.1,-,N/A,,Clear,240,2012-02-06 03:15:00
9:35 PM,26.6,26.6,100,30.21,4.0,SW,8.1,-,N/A,,Clear,230,2012-02-06 03:35:00
9:55 PM,28.4,26.6,93,30.20,4.0,WSW,9.2,-,N/A,,Clear,250,2012-02-06 03:55:00
10:15 PM,28.4,28.4,100,30.20,3.0,WSW,9.2,-,N/A,,Scattered Clouds,250,2012-02-06 04:15:00
10:35 PM,28.4,28.4,100,30.20,2.5,WSW,13.8,-,N/A,,Overcast,250,2012-02-06 04:35:00
10:55 PM,28.4,28.4,100,30.20,4.0,WSW,13.8,-,N/A,,Overcast,240,2012-02-06 04:55:00
11:15 PM,28.4,28.4,100,30.19,4.0,West,10.4,-,N/A,,Overcast,260,2012-02-06 05:15:00
11:35 PM,28.4,28.4,100,30.19,5.0,WSW,12.7,-,N/A,,Overcast,240,2012-02-06 05:35:00
11:55 PM,28.4,28.4,100,30.19,5.0,WSW,11.5,-,N/A,,Overcast,250,2012-02-06 05:55:00